Location: Góry Miechowskie
(50.3599°N, 20.1803°E)
Time: 02:16:16
(UTC+00:00)

H-2A R/B - Pass Details

Date: 15 June 2024
Orbit: 565 x 637 km, 98.4° (Epoch: 22 July)

Event Time Altitude Azimuth Distance (km) Brightness Sun altitude
Rises 00:12:39 0° 3° (N) 2,904 7.0 -13.5°
Reaches altitude 10° 00:15:26 10° 344° (NNW) 1,978 5.4 -13.3°
Maximum altitude 00:18:18 18° 302° (WNW) 1,506 4.1 -13.2°
Drops below altitude 10° 00:21:09 10° 259° (W) 1,937 4.3 -13.0°
Enters shadow 00:21:42 - 254° (WSW) 2,101 4.4 -12.9°
